Year,Month,Day,Hour,Minute,Value (Times are PST for temperature in C)
2019,11,24,00,00,7.30
2019,11,24,00,01,7.30
2019,11,24,00,02,7.30
2019,11,24,00,03,7.30
2019,11,24,00,04,7.20
2019,11,24,00,05,7.20
2019,11,24,00,06,7.20
2019,11,24,00,07,7.10
2019,11,24,00,08,7.10
2019,11,24,00,09,7.10
2019,11,24,00,10,7.00
2019,11,24,00,11,7.00
2019,11,24,00,12,6.90
2019,11,24,00,13,6.90
2019,11,24,00,14,6.90
2019,11,24,00,15,6.80
2019,11,24,00,16,6.80
2019,11,24,00,17,6.80
2019,11,24,00,18,6.80
2019,11,24,00,19,6.80
2019,11,24,00,20,6.80
2019,11,24,00,21,6.80
2019,11,24,00,22,6.80
2019,11,24,00,23,6.80
2019,11,24,00,24,6.80
2019,11,24,00,25,6.80
2019,11,24,00,26,6.80
2019,11,24,00,27,6.80
2019,11,24,00,28,6.80
2019,11,24,00,29,6.80
2019,11,24,00,30,6.90
2019,11,24,00,31,6.90
2019,11,24,00,32,7.00
2019,11,24,00,33,7.10
2019,11,24,00,34,7.10
2019,11,24,00,35,7.00
2019,11,24,00,36,7.00
2019,11,24,00,37,7.00
2019,11,24,00,38,7.00
2019,11,24,00,39,7.00
2019,11,24,00,40,7.00
2019,11,24,00,41,6.90
2019,11,24,00,42,6.90
2019,11,24,00,43,6.90
2019,11,24,00,44,6.90
2019,11,24,00,45,6.90
2019,11,24,00,46,6.90
2019,11,24,00,47,6.90
2019,11,24,00,48,6.90
2019,11,24,00,49,6.90
2019,11,24,00,50,7.00
2019,11,24,00,51,7.00
2019,11,24,00,52,7.00
2019,11,24,00,53,6.90
2019,11,24,00,54,6.90
2019,11,24,00,55,6.90
2019,11,24,00,56,6.90
2019,11,24,00,57,6.90
2019,11,24,00,58,6.90
2019,11,24,00,59,6.90
2019,11,24,01,00,6.90
2019,11,24,01,01,6.90
2019,11,24,01,02,6.90
2019,11,24,01,03,7.00
2019,11,24,01,04,7.10
2019,11,24,01,05,7.10
2019,11,24,01,06,7.10
2019,11,24,01,07,7.10
2019,11,24,01,08,7.10
2019,11,24,01,09,7.10
2019,11,24,01,10,7.20
2019,11,24,01,11,7.20
2019,11,24,01,12,7.20
2019,11,24,01,13,7.20
2019,11,24,01,14,7.10
2019,11,24,01,15,7.10
2019,11,24,01,16,7.10
2019,11,24,01,17,7.00
2019,11,24,01,18,7.00
2019,11,24,01,19,7.00
2019,11,24,01,20,7.00
2019,11,24,01,21,6.90
2019,11,24,01,22,6.90
2019,11,24,01,23,6.80
2019,11,24,01,24,6.80
2019,11,24,01,25,6.80
2019,11,24,01,26,6.80
2019,11,24,01,27,6.70
2019,11,24,01,28,6.70
2019,11,24,01,29,6.70
2019,11,24,01,30,6.70
2019,11,24,01,31,6.70
2019,11,24,01,32,6.70
2019,11,24,01,33,6.70
2019,11,24,01,34,6.70
2019,11,24,01,35,6.70
2019,11,24,01,36,6.70
2019,11,24,01,37,6.70
2019,11,24,01,38,6.70
2019,11,24,01,39,6.60
2019,11,24,01,40,6.70
2019,11,24,01,41,6.60
2019,11,24,01,42,6.60
2019,11,24,01,43,6.70
2019,11,24,01,44,6.70
2019,11,24,01,45,6.70
2019,11,24,01,46,6.70
2019,11,24,01,47,6.60
2019,11,24,01,48,6.60
2019,11,24,01,49,6.60
2019,11,24,01,50,6.60
2019,11,24,01,51,6.60
2019,11,24,01,52,6.60
2019,11,24,01,53,6.50
2019,11,24,01,54,6.50
2019,11,24,01,55,6.40
2019,11,24,01,56,6.40
2019,11,24,01,57,6.30
2019,11,24,01,58,6.30
2019,11,24,01,59,6.30
2019,11,24,02,00,6.30
2019,11,24,02,01,6.30
2019,11,24,02,02,6.30
2019,11,24,02,03,6.30
2019,11,24,02,04,6.30
2019,11,24,02,05,6.30
2019,11,24,02,06,6.30
2019,11,24,02,07,6.40
2019,11,24,02,08,6.40
2019,11,24,02,09,6.40
2019,11,24,02,10,6.50
2019,11,24,02,11,6.50
2019,11,24,02,12,6.60
2019,11,24,02,13,6.60
2019,11,24,02,14,6.60
2019,11,24,02,15,6.60
2019,11,24,02,16,6.60
2019,11,24,02,17,6.70
2019,11,24,02,18,6.70
2019,11,24,02,19,6.70
2019,11,24,02,20,6.70
2019,11,24,02,21,6.70
2019,11,24,02,22,6.70
2019,11,24,02,23,6.70
2019,11,24,02,24,6.70
2019,11,24,02,25,6.60
2019,11,24,02,26,6.60
2019,11,24,02,27,6.50
2019,11,24,02,28,6.50
2019,11,24,02,29,6.50
2019,11,24,02,30,6.40
2019,11,24,02,31,6.40
2019,11,24,02,32,6.30
2019,11,24,02,33,6.30
2019,11,24,02,34,6.20
2019,11,24,02,35,6.20
2019,11,24,02,36,6.10
2019,11,24,02,37,6.10
2019,11,24,02,38,6.10
2019,11,24,02,39,6.00
2019,11,24,02,40,6.00
2019,11,24,02,41,6.00
2019,11,24,02,42,6.00
2019,11,24,02,43,6.00
2019,11,24,02,44,6.00
2019,11,24,02,45,6.00
2019,11,24,02,46,6.00
2019,11,24,02,47,6.10
2019,11,24,02,48,6.10
2019,11,24,02,49,6.10
2019,11,24,02,50,6.10
2019,11,24,02,51,6.00
2019,11,24,02,52,5.90
2019,11,24,02,53,5.80
2019,11,24,02,54,5.70
2019,11,24,02,55,5.60
2019,11,24,02,56,5.50
2019,11,24,02,57,5.30
2019,11,24,02,58,5.20
2019,11,24,02,59,5.10
2019,11,24,03,00,5.00
2019,11,24,03,01,4.90
2019,11,24,03,02,4.90
2019,11,24,03,03,4.90
2019,11,24,03,04,4.90
2019,11,24,03,05,4.90
2019,11,24,03,06,5.00
2019,11,24,03,07,5.10
2019,11,24,03,08,5.20
2019,11,24,03,09,5.30
2019,11,24,03,10,5.30
2019,11,24,03,11,5.40
2019,11,24,03,12,5.50
2019,11,24,03,13,5.50
2019,11,24,03,14,5.50
2019,11,24,03,15,5.60
2019,11,24,03,16,5.60
2019,11,24,03,17,5.60
2019,11,24,03,18,5.60
2019,11,24,03,19,5.60
2019,11,24,03,20,5.60
2019,11,24,03,21,5.70
2019,11,24,03,22,5.70
2019,11,24,03,23,5.60
2019,11,24,03,24,5.60
2019,11,24,03,25,5.60
2019,11,24,03,26,5.60
2019,11,24,03,27,5.60
2019,11,24,03,28,5.60
2019,11,24,03,29,5.60
2019,11,24,03,30,5.60
2019,11,24,03,31,5.70
2019,11,24,03,32,5.70
2019,11,24,03,33,5.70
2019,11,24,03,34,5.70
2019,11,24,03,35,5.70
2019,11,24,03,36,5.70
2019,11,24,03,37,5.70
2019,11,24,03,38,5.70
2019,11,24,03,39,5.70
2019,11,24,03,40,5.70
2019,11,24,03,41,5.70
2019,11,24,03,42,5.70
2019,11,24,03,43,5.70
2019,11,24,03,44,5.70
2019,11,24,03,45,5.70
2019,11,24,03,46,5.70
2019,11,24,03,47,5.70
2019,11,24,03,48,5.70
2019,11,24,03,49,5.70
2019,11,24,03,50,5.70
2019,11,24,03,51,5.60
2019,11,24,03,52,5.60
2019,11,24,03,53,5.60
2019,11,24,03,54,5.50
2019,11,24,03,55,5.50
2019,11,24,03,56,5.40
2019,11,24,03,57,5.30
2019,11,24,03,58,5.20
2019,11,24,03,59,5.10
2019,11,24,04,00,5.00
2019,11,24,04,01,4.80
2019,11,24,04,02,4.70
2019,11,24,04,03,4.60
2019,11,24,04,04,4.50
2019,11,24,04,05,4.30
2019,11,24,04,06,4.30
2019,11,24,04,07,4.20
2019,11,24,04,08,4.10
2019,11,24,04,09,4.00
2019,11,24,04,10,4.00
2019,11,24,04,11,3.90
2019,11,24,04,12,3.90
2019,11,24,04,13,3.80
2019,11,24,04,14,3.80
2019,11,24,04,15,3.80
2019,11,24,04,16,3.80
2019,11,24,04,17,3.90
2019,11,24,04,18,4.00
2019,11,24,04,19,4.10
2019,11,24,04,20,4.10
2019,11,24,04,21,4.20
2019,11,24,04,22,4.20
2019,11,24,04,23,4.30
2019,11,24,04,24,4.40
2019,11,24,04,25,4.40
2019,11,24,04,26,4.50
2019,11,24,04,27,4.50
2019,11,24,04,28,4.60
2019,11,24,04,29,4.60
2019,11,24,04,30,4.70
2019,11,24,04,31,4.70
2019,11,24,04,32,4.70
2019,11,24,04,33,4.70
2019,11,24,04,34,4.80
2019,11,24,04,35,4.80
2019,11,24,04,36,4.80
2019,11,24,04,37,4.80
2019,11,24,04,38,4.80
2019,11,24,04,39,4.80
2019,11,24,04,40,4.80
2019,11,24,04,41,4.70
2019,11,24,04,42,4.70
2019,11,24,04,43,4.70
2019,11,24,04,44,4.70
2019,11,24,04,45,4.60
2019,11,24,04,46,4.60
2019,11,24,04,47,4.60
2019,11,24,04,48,4.50
2019,11,24,04,49,4.50
2019,11,24,04,50,4.40
2019,11,24,04,51,4.40
2019,11,24,04,52,4.40
2019,11,24,04,53,4.30
2019,11,24,04,54,4.30
2019,11,24,04,55,4.20
2019,11,24,04,56,4.10
2019,11,24,04,57,4.00
2019,11,24,04,58,3.90
2019,11,24,04,59,3.90
2019,11,24,05,00,3.80
2019,11,24,05,01,3.80
2019,11,24,05,02,3.80
2019,11,24,05,03,3.80
2019,11,24,05,04,3.80
2019,11,24,05,05,3.80
2019,11,24,05,06,3.90
2019,11,24,05,07,4.00
2019,11,24,05,08,4.10
2019,11,24,05,09,4.20
2019,11,24,05,10,4.30
2019,11,24,05,11,4.40
2019,11,24,05,12,4.40
2019,11,24,05,13,4.50
2019,11,24,05,14,4.50
2019,11,24,05,15,4.60
2019,11,24,05,16,4.50
2019,11,24,05,17,4.50
2019,11,24,05,18,4.60
2019,11,24,05,19,4.60
2019,11,24,05,20,4.60
2019,11,24,05,21,4.50
2019,11,24,05,22,4.40
2019,11,24,05,23,4.30
2019,11,24,05,24,4.20
2019,11,24,05,25,4.10
2019,11,24,05,26,3.90
2019,11,24,05,27,3.90
2019,11,24,05,28,3.80
2019,11,24,05,29,3.80
2019,11,24,05,30,3.80
2019,11,24,05,31,3.80
2019,11,24,05,32,3.80
2019,11,24,05,33,3.80
2019,11,24,05,34,3.70
2019,11,24,05,35,3.60
2019,11,24,05,36,3.50
2019,11,24,05,37,3.40
2019,11,24,05,38,3.30
2019,11,24,05,39,3.30
2019,11,24,05,40,3.20
2019,11,24,05,41,3.20
2019,11,24,05,42,3.10
2019,11,24,05,43,3.00
2019,11,24,05,44,2.90
2019,11,24,05,45,2.90
2019,11,24,05,46,2.80
2019,11,24,05,47,2.80
2019,11,24,05,48,2.80
2019,11,24,05,49,2.70
2019,11,24,05,50,2.70
2019,11,24,05,51,2.70
2019,11,24,05,52,2.70
2019,11,24,05,53,2.70
2019,11,24,05,54,2.70
2019,11,24,05,55,2.60
2019,11,24,05,56,2.60
2019,11,24,05,57,2.50
2019,11,24,05,58,2.50
2019,11,24,05,59,2.50
2019,11,24,06,00,2.50
2019,11,24,06,01,2.50
2019,11,24,06,02,2.60
2019,11,24,06,03,2.60
2019,11,24,06,04,2.60
2019,11,24,06,05,2.50
2019,11,24,06,06,2.50
2019,11,24,06,07,2.40
2019,11,24,06,08,2.40
2019,11,24,06,09,2.30
2019,11,24,06,10,2.30
2019,11,24,06,11,2.20
2019,11,24,06,12,2.10
2019,11,24,06,13,2.10
2019,11,24,06,14,2.00
2019,11,24,06,15,2.00
2019,11,24,06,16,1.90
2019,11,24,06,17,1.90
2019,11,24,06,18,1.90
2019,11,24,06,19,1.90
2019,11,24,06,20,1.90
2019,11,24,06,21,1.90
2019,11,24,06,22,1.90
2019,11,24,06,23,1.90
2019,11,24,06,24,1.90
2019,11,24,06,25,2.00
2019,11,24,06,26,2.00
2019,11,24,06,27,2.00
2019,11,24,06,28,2.10
2019,11,24,06,29,2.10
2019,11,24,06,30,2.20
2019,11,24,06,31,2.20
2019,11,24,06,32,2.30
2019,11,24,06,33,2.30
2019,11,24,06,34,2.30
2019,11,24,06,35,2.40
2019,11,24,06,36,2.40
2019,11,24,06,37,2.50
2019,11,24,06,38,2.50
2019,11,24,06,39,2.60
2019,11,24,06,40,2.60
2019,11,24,06,41,2.60
2019,11,24,06,42,2.60
2019,11,24,06,43,2.60
2019,11,24,06,44,2.70
2019,11,24,06,45,2.90
2019,11,24,06,46,3.10
2019,11,24,06,47,3.20
2019,11,24,06,48,3.30
2019,11,24,06,49,3.50
2019,11,24,06,50,3.50
2019,11,24,06,51,3.60
2019,11,24,06,52,3.60
2019,11,24,06,53,3.60
2019,11,24,06,54,3.60
2019,11,24,06,55,3.60
2019,11,24,06,56,3.60
2019,11,24,06,57,3.60
2019,11,24,06,58,3.50
2019,11,24,06,59,3.40
2019,11,24,07,00,3.30
2019,11,24,07,01,3.20
2019,11,24,07,02,3.10
2019,11,24,07,03,3.00
2019,11,24,07,04,3.00
2019,11,24,07,05,2.90
2019,11,24,07,06,2.90
2019,11,24,07,07,2.90
2019,11,24,07,08,2.90
2019,11,24,07,09,2.80
2019,11,24,07,10,2.80
2019,11,24,07,11,2.80
2019,11,24,07,12,2.80
2019,11,24,07,13,2.80
2019,11,24,07,14,2.80
2019,11,24,07,15,2.80
2019,11,24,07,16,2.80
2019,11,24,07,17,2.80
2019,11,24,07,18,2.80
2019,11,24,07,19,2.80
2019,11,24,07,20,2.80
2019,11,24,07,21,2.80
2019,11,24,07,22,2.90
2019,11,24,07,23,2.90
2019,11,24,07,24,3.00
2019,11,24,07,25,3.00
2019,11,24,07,26,2.90
2019,11,24,07,27,2.90
2019,11,24,07,28,2.80
2019,11,24,07,29,2.80
2019,11,24,07,30,2.80
2019,11,24,07,31,2.70
2019,11,24,07,32,2.70
2019,11,24,07,33,2.60
2019,11,24,07,34,2.60
2019,11,24,07,35,2.60
2019,11,24,07,36,2.70
2019,11,24,07,37,2.70
2019,11,24,07,38,2.70
2019,11,24,07,39,2.80
2019,11,24,07,40,2.80
2019,11,24,07,41,2.90
2019,11,24,07,42,2.90
2019,11,24,07,43,2.80
2019,11,24,07,44,2.80
2019,11,24,07,45,2.70
2019,11,24,07,46,2.70
2019,11,24,07,47,2.70
2019,11,24,07,48,2.80
2019,11,24,07,49,2.90
2019,11,24,07,50,3.00
2019,11,24,07,51,3.10
2019,11,24,07,52,3.20
2019,11,24,07,53,3.20
2019,11,24,07,54,3.30
2019,11,24,07,55,3.30
2019,11,24,07,56,3.40
2019,11,24,07,57,3.40
2019,11,24,07,58,3.30
2019,11,24,07,59,3.20
2019,11,24,08,00,3.10
2019,11,24,08,01,3.00
2019,11,24,08,02,2.90
2019,11,24,08,03,2.90
2019,11,24,08,04,2.80
2019,11,24,08,05,2.80
2019,11,24,08,06,2.80
2019,11,24,08,07,2.70
2019,11,24,08,08,2.70
2019,11,24,08,09,2.70
2019,11,24,08,10,2.70
2019,11,24,08,11,2.80
2019,11,24,08,12,2.70
2019,11,24,08,13,2.70
2019,11,24,08,14,2.70
2019,11,24,08,15,2.60
2019,11,24,08,16,2.60
2019,11,24,08,17,2.60
2019,11,24,08,18,2.50
2019,11,24,08,19,2.50
2019,11,24,08,20,2.50
2019,11,24,08,21,2.50
2019,11,24,08,22,2.60
2019,11,24,08,23,2.60
2019,11,24,08,24,2.70
2019,11,24,08,25,2.70
2019,11,24,08,26,2.70
2019,11,24,08,27,2.70
2019,11,24,08,28,2.80
2019,11,24,08,29,2.80
2019,11,24,08,30,2.90
2019,11,24,08,31,2.90
2019,11,24,08,32,2.90
2019,11,24,08,33,2.90
2019,11,24,08,34,3.00
2019,11,24,08,35,3.00
2019,11,24,08,36,3.10
2019,11,24,08,37,3.20
2019,11,24,08,38,3.20
2019,11,24,08,39,3.20
2019,11,24,08,40,3.30
2019,11,24,08,41,3.30
2019,11,24,08,42,3.30
2019,11,24,08,43,3.30
2019,11,24,08,44,3.30
2019,11,24,08,45,3.30
2019,11,24,08,46,3.20
2019,11,24,08,47,3.30
2019,11,24,08,48,3.30
2019,11,24,08,49,3.30
2019,11,24,08,50,3.30
2019,11,24,08,51,3.40
2019,11,24,08,52,3.40
2019,11,24,08,53,3.40
2019,11,24,08,54,3.40
2019,11,24,08,55,3.40
2019,11,24,08,56,3.40
2019,11,24,08,57,3.40
2019,11,24,08,58,3.40
2019,11,24,08,59,3.40
2019,11,24,09,00,3.50
2019,11,24,09,01,3.50
2019,11,24,09,02,3.60
2019,11,24,09,03,3.60
2019,11,24,09,04,3.70
2019,11,24,09,05,3.80
2019,11,24,09,06,3.90
2019,11,24,09,07,4.00
2019,11,24,09,08,4.10
2019,11,24,09,09,4.10
2019,11,24,09,10,4.20
2019,11,24,09,11,4.30
2019,11,24,09,12,4.40
2019,11,24,09,13,4.40
2019,11,24,09,14,4.50
2019,11,24,09,15,4.60
2019,11,24,09,16,4.70
2019,11,24,09,17,4.70
2019,11,24,09,18,4.80
2019,11,24,09,19,4.80
2019,11,24,09,20,4.80
2019,11,24,09,21,4.80
2019,11,24,09,22,4.90
2019,11,24,09,23,4.90
2019,11,24,09,24,4.90
2019,11,24,09,25,4.90
2019,11,24,09,26,4.90
2019,11,24,09,27,5.00
2019,11,24,09,28,5.00
2019,11,24,09,29,5.10
2019,11,24,09,30,5.10
2019,11,24,09,31,5.10
2019,11,24,09,32,5.20
2019,11,24,09,33,5.20
2019,11,24,09,34,5.30
2019,11,24,09,35,5.30
2019,11,24,09,36,5.40
2019,11,24,09,37,5.40
2019,11,24,09,38,5.50
2019,11,24,09,39,5.50
2019,11,24,09,40,5.60
2019,11,24,09,41,5.70
2019,11,24,09,42,5.70
2019,11,24,09,43,5.80
2019,11,24,09,44,5.80
2019,11,24,09,45,5.90
2019,11,24,09,46,6.00
2019,11,24,09,47,6.10
2019,11,24,09,48,6.20
2019,11,24,09,49,6.30
2019,11,24,09,50,6.30
2019,11,24,09,51,6.30
2019,11,24,09,52,6.40
2019,11,24,09,53,6.40
2019,11,24,09,54,6.50
2019,11,24,09,55,6.50
2019,11,24,09,56,6.50
2019,11,24,09,57,6.60
2019,11,24,09,58,6.60
2019,11,24,09,59,6.60
2019,11,24,10,00,6.70
2019,11,24,10,01,6.70
2019,11,24,10,02,6.70
2019,11,24,10,03,6.80
2019,11,24,10,04,6.80
2019,11,24,10,05,6.80
2019,11,24,10,06,6.80
2019,11,24,10,07,6.90
2019,11,24,10,08,6.90
2019,11,24,10,09,6.90
2019,11,24,10,10,7.00
2019,11,24,10,11,7.10
2019,11,24,10,12,7.10
2019,11,24,10,13,7.10
2019,11,24,10,14,7.10
2019,11,24,10,15,7.20
2019,11,24,10,16,7.20
2019,11,24,10,17,7.20
2019,11,24,10,18,7.30
2019,11,24,10,19,7.30
2019,11,24,10,20,7.30
2019,11,24,10,21,7.30
2019,11,24,10,22,7.30
2019,11,24,10,23,7.30
2019,11,24,10,24,7.30
2019,11,24,10,25,7.30
2019,11,24,10,26,7.30
2019,11,24,10,27,7.30
2019,11,24,10,28,7.40
2019,11,24,10,29,7.40
2019,11,24,10,30,7.40
2019,11,24,10,31,7.40
2019,11,24,10,32,7.30
2019,11,24,10,33,7.30
2019,11,24,10,34,7.20
2019,11,24,10,35,7.20
2019,11,24,10,36,7.20
2019,11,24,10,37,7.10
2019,11,24,10,38,7.10
2019,11,24,10,39,7.10
2019,11,24,10,40,7.00
2019,11,24,10,41,7.00
2019,11,24,10,42,7.00
2019,11,24,10,43,7.00
2019,11,24,10,44,7.00
2019,11,24,10,45,7.00
2019,11,24,10,46,6.90
2019,11,24,10,47,7.00
2019,11,24,10,48,7.10
2019,11,24,10,49,7.10
2019,11,24,10,50,7.10
2019,11,24,10,51,7.10
2019,11,24,10,52,7.20
2019,11,24,10,53,7.20
2019,11,24,10,54,7.20
2019,11,24,10,55,7.20
2019,11,24,10,56,7.20
2019,11,24,10,57,7.30
2019,11,24,10,58,7.30
2019,11,24,10,59,7.30
2019,11,24,11,00,7.30
2019,11,24,11,01,7.40
2019,11,24,11,02,7.40
2019,11,24,11,03,7.40
2019,11,24,11,04,7.40
2019,11,24,11,05,7.50
2019,11,24,11,06,7.50
2019,11,24,11,07,7.50
2019,11,24,11,08,7.60
2019,11,24,11,09,7.60
2019,11,24,11,10,7.70
2019,11,24,11,11,7.70
2019,11,24,11,12,7.70
2019,11,24,11,13,7.80
2019,11,24,11,14,7.80
2019,11,24,11,15,7.80
2019,11,24,11,16,7.90
2019,11,24,11,17,7.90
2019,11,24,11,18,7.90
2019,11,24,11,19,8.00
2019,11,24,11,20,8.00
2019,11,24,11,21,8.00
2019,11,24,11,22,8.10
2019,11,24,11,23,8.10
2019,11,24,11,24,8.10
2019,11,24,11,25,8.10
2019,11,24,11,26,8.10
2019,11,24,11,27,8.00
2019,11,24,11,28,8.00
2019,11,24,11,29,8.00
2019,11,24,11,30,8.00
2019,11,24,11,31,8.10
2019,11,24,11,32,8.10
2019,11,24,11,33,8.10
2019,11,24,11,34,8.10
2019,11,24,11,35,8.00
2019,11,24,11,36,8.00
2019,11,24,11,37,8.00
2019,11,24,11,38,8.00
2019,11,24,11,39,8.00
2019,11,24,11,40,8.00
2019,11,24,11,41,8.00
2019,11,24,11,42,8.00
2019,11,24,11,43,8.00
2019,11,24,11,44,8.10
2019,11,24,11,45,8.10
2019,11,24,11,46,8.20
2019,11,24,11,47,8.30
2019,11,24,11,48,8.40
2019,11,24,11,49,8.40
2019,11,24,11,50,8.40
2019,11,24,11,51,8.40
2019,11,24,11,52,8.50
2019,11,24,11,53,8.50
2019,11,24,11,54,8.60
2019,11,24,11,55,8.60
2019,11,24,11,56,8.70
2019,11,24,11,57,8.80
2019,11,24,11,58,8.80
2019,11,24,11,59,8.80
2019,11,24,12,00,8.90
2019,11,24,12,01,8.90
2019,11,24,12,02,8.90
2019,11,24,12,03,8.90
2019,11,24,12,04,8.90
2019,11,24,12,05,8.90
2019,11,24,12,06,8.90
2019,11,24,12,07,8.90
2019,11,24,12,08,9.00
2019,11,24,12,09,9.00
2019,11,24,12,10,9.10
2019,11,24,12,11,9.00
2019,11,24,12,12,9.00
2019,11,24,12,13,8.90
2019,11,24,12,14,8.90
2019,11,24,12,15,8.90
2019,11,24,12,16,8.90
2019,11,24,12,17,9.00
2019,11,24,12,18,9.00
2019,11,24,12,19,9.00
2019,11,24,12,20,9.00
2019,11,24,12,21,9.00
2019,11,24,12,22,9.00
2019,11,24,12,23,9.00
2019,11,24,12,24,9.10
2019,11,24,12,25,9.10
2019,11,24,12,26,9.10
2019,11,24,12,27,9.10
2019,11,24,12,28,9.00
2019,11,24,12,29,8.90
2019,11,24,12,30,8.90
2019,11,24,12,31,8.80
2019,11,24,12,32,8.80
2019,11,24,12,33,8.70
2019,11,24,12,34,8.60
2019,11,24,12,35,8.60
2019,11,24,12,36,8.50
2019,11,24,12,37,8.50
2019,11,24,12,38,8.40
2019,11,24,12,39,8.40
2019,11,24,12,40,8.40
2019,11,24,12,41,8.50
2019,11,24,12,42,8.50
2019,11,24,12,43,8.60
2019,11,24,12,44,8.50
2019,11,24,12,45,8.50
2019,11,24,12,46,8.50
2019,11,24,12,47,8.50
2019,11,24,12,48,8.40
2019,11,24,12,49,8.30
2019,11,24,12,50,8.30
2019,11,24,12,51,8.20
2019,11,24,12,52,8.20
2019,11,24,12,53,8.20
2019,11,24,12,54,8.10
2019,11,24,12,55,8.10
2019,11,24,12,56,8.10
2019,11,24,12,57,8.20
2019,11,24,12,58,8.20
2019,11,24,12,59,8.30
2019,11,24,13,00,8.30
2019,11,24,13,01,8.30
2019,11,24,13,02,8.30
2019,11,24,13,03,8.30
2019,11,24,13,04,8.20
2019,11,24,13,05,8.30
2019,11,24,13,06,8.30
2019,11,24,13,07,8.30
2019,11,24,13,08,8.30
2019,11,24,13,09,8.30
2019,11,24,13,10,8.30
2019,11,24,13,11,8.40
2019,11,24,13,12,8.40
2019,11,24,13,13,8.40
2019,11,24,13,14,8.50
2019,11,24,13,15,8.50
2019,11,24,13,16,8.60
2019,11,24,13,17,8.60
2019,11,24,13,18,8.60
2019,11,24,13,19,8.50
2019,11,24,13,20,8.50
2019,11,24,13,21,8.50
2019,11,24,13,22,8.50
2019,11,24,13,23,8.40
2019,11,24,13,24,8.40
2019,11,24,13,25,8.30
2019,11,24,13,26,8.30
2019,11,24,13,27,8.30
2019,11,24,13,28,8.30
2019,11,24,13,29,8.30
2019,11,24,13,30,8.30
2019,11,24,13,31,8.30
2019,11,24,13,32,8.30
2019,11,24,13,33,8.30
2019,11,24,13,34,8.30
2019,11,24,13,35,8.30
2019,11,24,13,36,8.30
2019,11,24,13,37,8.30
2019,11,24,13,38,8.20
2019,11,24,13,39,8.20
2019,11,24,13,40,8.20
2019,11,24,13,41,8.20
2019,11,24,13,42,8.10
2019,11,24,13,43,8.10
2019,11,24,13,44,8.10
2019,11,24,13,45,8.10
2019,11,24,13,46,8.00
2019,11,24,13,47,8.00
2019,11,24,13,48,8.00
2019,11,24,13,49,7.90
2019,11,24,13,50,7.90
2019,11,24,13,51,7.90
2019,11,24,13,52,7.90
2019,11,24,13,53,7.90
2019,11,24,13,54,7.90
2019,11,24,13,55,7.90
2019,11,24,13,56,7.90
2019,11,24,13,57,7.80
2019,11,24,13,58,7.80
2019,11,24,13,59,7.80
2019,11,24,14,00,7.80
2019,11,24,14,01,7.80
2019,11,24,14,02,7.80
2019,11,24,14,03,7.80
2019,11,24,14,04,7.80
2019,11,24,14,05,7.80
2019,11,24,14,06,7.80
2019,11,24,14,07,7.80
2019,11,24,14,08,7.80
2019,11,24,14,09,7.80
2019,11,24,14,10,7.80
2019,11,24,14,11,7.80
2019,11,24,14,12,7.80
2019,11,24,14,13,7.80
2019,11,24,14,14,7.80
2019,11,24,14,15,7.80
2019,11,24,14,16,7.80
2019,11,24,14,17,7.80
2019,11,24,14,18,7.80
2019,11,24,14,19,7.80
2019,11,24,14,20,7.80
2019,11,24,14,21,7.80
2019,11,24,14,22,7.90
2019,11,24,14,23,7.90
2019,11,24,14,24,7.90
2019,11,24,14,25,7.90
2019,11,24,14,26,8.00
2019,11,24,14,27,8.00
2019,11,24,14,28,8.10
2019,11,24,14,29,8.10
2019,11,24,14,30,8.10
2019,11,24,14,31,8.20
2019,11,24,14,32,8.20
2019,11,24,14,33,8.20
2019,11,24,14,34,8.20
2019,11,24,14,35,8.20
2019,11,24,14,36,8.20
2019,11,24,14,37,8.20
2019,11,24,14,38,8.20
2019,11,24,14,39,8.20
2019,11,24,14,40,8.10
2019,11,24,14,41,8.10
2019,11,24,14,42,8.10
2019,11,24,14,43,8.10
2019,11,24,14,44,8.10
2019,11,24,14,45,8.10
2019,11,24,14,46,8.20
2019,11,24,14,47,8.20
2019,11,24,14,48,8.10
2019,11,24,14,49,8.10
2019,11,24,14,50,8.10
2019,11,24,14,51,8.10
2019,11,24,14,52,8.10
2019,11,24,14,53,8.10
2019,11,24,14,54,8.10
2019,11,24,14,55,8.20
2019,11,24,14,56,8.10
2019,11,24,14,57,8.20
2019,11,24,14,58,8.20
2019,11,24,14,59,8.10
2019,11,24,15,00,8.10
2019,11,24,15,01,8.10
2019,11,24,15,02,8.10
2019,11,24,15,03,8.10
2019,11,24,15,04,8.10
2019,11,24,15,05,8.10
2019,11,24,15,06,8.10
2019,11,24,15,07,8.10
2019,11,24,15,08,8.10
2019,11,24,15,09,8.10
2019,11,24,15,10,8.10
2019,11,24,15,11,8.10
2019,11,24,15,12,8.10
2019,11,24,15,13,8.10
2019,11,24,15,14,8.10
2019,11,24,15,15,8.10
2019,11,24,15,16,8.10
2019,11,24,15,17,8.10
2019,11,24,15,18,8.10
2019,11,24,15,19,8.10
2019,11,24,15,20,8.00
2019,11,24,15,21,8.00
2019,11,24,15,22,8.00
2019,11,24,15,23,8.00
2019,11,24,15,24,8.00
2019,11,24,15,25,8.00
2019,11,24,15,26,8.00
2019,11,24,15,27,8.00
2019,11,24,15,28,8.00
2019,11,24,15,29,8.00
2019,11,24,15,30,8.00
2019,11,24,15,31,7.90
2019,11,24,15,32,8.00
2019,11,24,15,33,8.00
2019,11,24,15,34,8.00
2019,11,24,15,35,8.10
2019,11,24,15,36,8.10
2019,11,24,15,37,8.10
2019,11,24,15,38,8.10
2019,11,24,15,39,8.10
2019,11,24,15,40,8.10
2019,11,24,15,41,8.10
2019,11,24,15,42,8.10
2019,11,24,15,43,8.10
2019,11,24,15,44,8.10
2019,11,24,15,45,8.10
2019,11,24,15,46,8.00
2019,11,24,15,47,8.00
2019,11,24,15,48,8.00
2019,11,24,15,49,8.00
2019,11,24,15,50,8.00
2019,11,24,15,51,7.90
2019,11,24,15,52,7.90
2019,11,24,15,53,7.90
2019,11,24,15,54,7.90
2019,11,24,15,55,7.80
2019,11,24,15,56,7.80
2019,11,24,15,57,7.80
2019,11,24,15,58,7.80
2019,11,24,15,59,7.80
2019,11,24,16,00,7.70
2019,11,24,16,01,7.70
2019,11,24,16,02,7.70
2019,11,24,16,03,7.70
2019,11,24,16,04,7.70
2019,11,24,16,05,7.60
2019,11,24,16,06,7.60
2019,11,24,16,07,7.60
2019,11,24,16,08,7.60
2019,11,24,16,09,7.60
2019,11,24,16,10,7.50
2019,11,24,16,11,7.50
2019,11,24,16,12,7.50
2019,11,24,16,13,7.50
2019,11,24,16,14,7.50
2019,11,24,16,15,7.50
2019,11,24,16,16,7.50
2019,11,24,16,17,7.50
2019,11,24,16,18,7.50
2019,11,24,16,19,7.50
2019,11,24,16,20,7.60
2019,11,24,16,21,7.50
2019,11,24,16,22,7.50
2019,11,24,16,23,7.60
2019,11,24,16,24,7.50
2019,11,24,16,25,7.50
2019,11,24,16,26,7.50
2019,11,24,16,27,7.50
2019,11,24,16,28,7.50
2019,11,24,16,29,7.40
2019,11,24,16,30,7.40
2019,11,24,16,31,7.40
2019,11,24,16,32,7.40
2019,11,24,16,33,7.40
2019,11,24,16,34,7.40
2019,11,24,16,35,7.40
2019,11,24,16,36,7.40
2019,11,24,16,37,7.40
2019,11,24,16,38,7.40
2019,11,24,16,39,7.40
2019,11,24,16,40,7.50
2019,11,24,16,41,7.60
2019,11,24,16,42,7.60
2019,11,24,16,43,7.60
2019,11,24,16,44,7.70
2019,11,24,16,45,7.70
2019,11,24,16,46,7.70
2019,11,24,16,47,7.70
2019,11,24,16,48,7.70
2019,11,24,16,49,7.80
2019,11,24,16,50,7.80
2019,11,24,16,51,7.80
2019,11,24,16,52,7.80
2019,11,24,16,53,7.80
2019,11,24,16,54,7.80
2019,11,24,16,55,7.80
2019,11,24,16,56,7.80
2019,11,24,16,57,7.80
2019,11,24,16,58,7.80
2019,11,24,16,59,7.70
2019,11,24,17,00,7.70
2019,11,24,17,01,7.60
2019,11,24,17,02,7.60
2019,11,24,17,03,7.50
2019,11,24,17,04,7.40
2019,11,24,17,05,7.30
2019,11,24,17,06,7.30
2019,11,24,17,07,7.20
2019,11,24,17,08,7.10
2019,11,24,17,09,7.10
2019,11,24,17,10,7.00
2019,11,24,17,11,7.00
2019,11,24,17,12,6.90
2019,11,24,17,13,6.80
2019,11,24,17,14,6.80
2019,11,24,17,15,6.80
2019,11,24,17,16,6.80
2019,11,24,17,17,6.80
2019,11,24,17,18,6.70
2019,11,24,17,19,6.70
2019,11,24,17,20,6.70
2019,11,24,17,21,6.70
2019,11,24,17,22,6.70
2019,11,24,17,23,6.60
2019,11,24,17,24,6.60
2019,11,24,17,25,6.60
2019,11,24,17,26,6.60
2019,11,24,17,27,6.60
2019,11,24,17,28,6.60
2019,11,24,17,29,6.60
2019,11,24,17,30,6.60
2019,11,24,17,31,6.50
2019,11,24,17,32,6.50
2019,11,24,17,33,6.50
2019,11,24,17,34,6.50
2019,11,24,17,35,6.50
2019,11,24,17,36,6.50
2019,11,24,17,37,6.50
2019,11,24,17,38,6.50
2019,11,24,17,39,6.50
2019,11,24,17,40,6.50
2019,11,24,17,41,6.50
2019,11,24,17,42,6.50
2019,11,24,17,43,6.40
2019,11,24,17,44,6.40
2019,11,24,17,45,6.40
2019,11,24,17,46,6.40
2019,11,24,17,47,6.40
2019,11,24,17,48,6.40
2019,11,24,17,49,6.30
2019,11,24,17,50,6.30
2019,11,24,17,51,6.30
2019,11,24,17,52,6.30
2019,11,24,17,53,6.30
2019,11,24,17,54,6.30
2019,11,24,17,55,6.30
2019,11,24,17,56,6.30
2019,11,24,17,57,6.20
2019,11,24,17,58,6.20
2019,11,24,17,59,6.20
2019,11,24,18,00,6.20
2019,11,24,18,01,6.20
2019,11,24,18,02,6.20
2019,11,24,18,03,6.20
2019,11,24,18,04,6.20
2019,11,24,18,05,6.20
2019,11,24,18,06,6.20